| time (UTC) | temp F | wind direction | speed MPH | gust MPH | rain 1hr in | rain 24hr in | rain mn in | humidity % | barometer mb |
| 20260505183039 | 67 | 248 | 6.0 | 13.0 | 0.00 | 0.01 | 0.01 | 63 | 1005.6 |
| 20260505181522 | 68 | 294 | 5.0 | 16.0 | 0.00 | 0.01 | 0.01 | 61 | 1005.3 |
| 20260505180029 | 68 | 244 | 5.0 | 12.0 | 0.00 | 0.01 | 0.01 | 63 | 1005.1 |
| 20260505174523 | 67 | 299 | 7.0 | 16.0 | 0.00 | 0.01 | 0.01 | 63 | 1005.4 |
| 20260505173045 | 68 | 252 | 6.0 | 13.0 | 0.00 | 0.01 | 0.01 | 62 | 1005.2 |
| 20260505171539 | 68 | 261 | 4.0 | 16.0 | 0.00 | 0.01 | 0.01 | 63 | 1005.2 |
| 20260505170032 | 68 | 276 | 4.0 | 15.0 | 0.00 | 0.01 | 0.01 | 63 | 1004.6 |
| 20260505164525 | 67 | 284 | 6.0 | 13.0 | 0.00 | 0.01 | 0.01 | 66 | 1004.7 |
| 20260505163029 | 66 | 251 | 4.0 | 11.0 | 0.00 | 0.01 | 0.01 | 65 | 1004.8 |
| 20260505161525 | 66 | 238 | 4.0 | 11.0 | 0.00 | 0.01 | 0.01 | 65 | 1005.1 |
| 20260505153017 | 66 | 288 | 3.0 | 12.0 | 0.00 | 0.01 | 0.01 | 67 | 1004.4 |
| 20260505151536 | 66 | 245 | 3.0 | 11.0 | 0.00 | 0.01 | 0.01 | 66 | 1003.8 |
| 20260505124549 | 67 | 245 | 3.0 | 7.0 | 0.00 | 0.01 | 0.01 | 66 | 1002.9 |
| 20260505123010 | 67 | 263 | 3.0 | 8.0 | 0.00 | 0.01 | 0.01 | 67 | 1002.9 |
| 20260505121512 | 66 | 241 | 2.0 | 6.0 | 0.00 | 0.01 | 0.01 | 68 | 1002.7 |
| 20260505120024 | 66 | 231 | 2.0 | 4.0 | 0.00 | 0.01 | 0.01 | 69 | 1002.6 |
| 20260505114542 | 65 | 222 | 2.0 | 5.0 | 0.00 | 0.01 | 0.01 | 70 | 1002.5 |
| 20260505113038 | 65 | 242 | 3.0 | 7.0 | 0.00 | 0.01 | 0.01 | 70 | 1002.5 |
| 20260505111600 | 64 | 252 | 2.0 | 5.0 | 0.00 | 0.01 | 0.01 | 72 | 1002.2 |
| 20260505101545 | 60 | 241 | 3.0 | 7.0 | 0.00 | 0.01 | 0.01 | 78 | 1001.7 |
| 20260505100041 | 58 | 225 | 2.0 | 5.0 | 0.00 | 0.01 | 0.01 | 82 | 1001.7 |
| 20260505094536 | 58 | 201 | 3.0 | 5.0 | 0.00 | 0.01 | 0.01 | 83 | 1001.5 |
| 20260505093103 | 58 | 180 | 2.0 | 5.0 | 0.00 | 0.01 | 0.01 | 84 | 1001.5 |
| 20260505093002 | 58 | 200 | 2.0 | 5.0 | 0.00 | 0.01 | 0.01 | 84 | 1001.5 |
| 20260505091605 | 58 | 209 | 2.0 | 6.0 | 0.00 | 0.01 | 0.01 | 84 | 1001.6 |
| 20260505090008 | 57 | 194 | 3.0 | 5.0 | 0.00 | 0.01 | 0.01 | 86 | 1001.7 |
| 20260505084535 | 57 | 206 | 2.0 | 6.0 | 0.00 | 0.01 | 0.01 | 88 | 1001.9 |
| 20260505083046 | 57 | 210 | 3.0 | 6.0 | 0.00 | 0.01 | 0.01 | 89 | 1002.1 |
| 20260505081538 | 57 | 217 | 4.0 | 6.0 | 0.00 | 0.01 | 0.01 | 89 | 1002.1 |
| 20260505080038 | 57 | 206 | 2.0 | 5.0 | 0.00 | 0.01 | 0.01 | 89 | 1002.1 |
| 20260505074537 | 57 | 221 | 2.0 | 4.0 | 0.01 | 0.01 | 0.01 | 88 | 1002.3 |
| 20260505073034 | 58 | 255 | 1.0 | 4.0 | 0.01 | 0.01 | 0.01 | 87 | 1002.5 |
| 20260505071517 | 58 | 253 | 1.0 | 8.0 | 0.01 | 0.01 | 0.01 | 86 | 1003.1 |
| 20260505070038 | 59 | 263 | 3.0 | 6.0 | 0.00 | 0.00 | 0.00 | 83 | 1003.0 |
| 20260505064526 | 61 | 236 | 3.0 | 9.0 | 0.00 | 0.00 | 0.00 | 78 | 1002.9 |
| 20260505063012 | 63 | 266 | 3.0 | 9.0 | 0.00 | 0.00 | 0.00 | 71 | 1003.0 |
| 20260505061540 | 63 | 246 | 2.0 | 5.0 | 0.00 | 0.00 | 0.00 | 70 | 1003.1 |
| 20260505060055 | 63 | 239 | 2.0 | 6.0 | 0.00 | 0.00 | 0.00 | 69 | 1002.8 |
| 20260505054608 | 63 | 227 | 2.0 | 5.0 | 0.00 | 0.00 | 0.00 | 69 | 1002.9 |
| 20260505053015 | 64 | 232 | 3.0 | 7.0 | 0.00 | 0.00 | 0.00 | 68 | 1003.0 |
| 20260505051515 | 64 | 234 | 2.0 | 6.0 | 0.00 | 0.00 | 0.00 | 68 | 1003.0 |
| 20260505041530 | 61 | 202 | 2.0 | 5.0 | 0.00 | 0.00 | 0.00 | 65 | 1003.0 |
| 20260505040053 | 61 | 205 | 2.0 | 6.0 | 0.00 | 0.00 | 0.00 | 64 | 1003.2 |
| 20260505034545 | 62 | 198 | 2.0 | 6.0 | 0.00 | 0.00 | 0.00 | 63 | 1003.3 |
| 20260505033046 | 62 | 171 | 2.0 | 4.0 | 0.00 | 0.00 | 0.00 | 63 | 1003.5 |
| 20260505031542 | 63 | 236 | 2.0 | 4.0 | 0.00 | 0.00 | 0.00 | 62 | 1003.6 |
| 20260505030044 | 62 | 230 | 3.0 | 5.0 | 0.00 | 0.00 | 0.00 | 57 | 1003.8 |
| 20260505024556 | 62 | 190 | 1.0 | 3.0 | 0.00 | 0.00 | 0.00 | 56 | 1003.5 |
| 20260505023058 | 62 | 201 | 2.0 | 5.0 | 0.00 | 0.00 | 0.00 | 55 | 1003.4 |
| 20260505021559 | 63 | 216 | 1.0 | 3.0 | 0.00 | 0.00 | 0.00 | 54 | 1003.4 |
| 20260505020054 | 63 | 257 | 1.0 | 2.0 | 0.00 | 0.00 | 0.00 | 53 | 1003.6 |
| 20260505014607 | 63 | 257 | 1.0 | 2.0 | 0.00 | 0.00 | 0.00 | 52 | 1003.7 |
| 20260505013053 | 63 | 251 | 1.0 | 3.0 | 0.00 | 0.00 | 0.00 | 52 | 1003.8 |
| 20260505011559 | 64 | 253 | 0.0 | 2.0 | 0.00 | 0.00 | 0.00 | 52 | 1003.6 |
| 20260505010050 | 65 | 253 | 1.0 | 3.0 | 0.00 | 0.00 | 0.00 | 49 | 1003.6 |
| 20260505004556 | 65 | 252 | 1.0 | 2.0 | 0.00 | 0.00 | 0.00 | 49 | 1003.6 |
| 20260505003054 | 66 | 249 | 2.0 | 5.0 | 0.00 | 0.00 | 0.00 | 47 | 1003.5 |
| 20260505001516 | 67 | 261 | 1.0 | 4.0 | 0.00 | 0.00 | 0.00 | 45 | 1003.6 |
| 20260505000048 | 69 | 252 | 1.0 | 4.0 | 0.00 | 0.00 | 0.00 | 43 | 1003.7 |
| 20260504234534 | 69 | 239 | 2.0 | 7.0 | 0.00 | 0.00 | 0.00 | 42 | 1003.7 |
| 20260504233028 | 70 | 281 | 1.0 | 5.0 | 0.00 | 0.00 | 0.00 | 42 | 1003.6 |
| 20260504231514 | 70 | 248 | 1.0 | 6.0 | 0.00 | 0.00 | 0.00 | 40 | 1003.5 |
| 20260504230014 | 71 | 252 | 2.0 | 4.0 | 0.00 | 0.00 | 0.00 | 39 | 1003.6 |
| 20260504224520 | 71 | 257 | 2.0 | 6.0 | 0.00 | 0.00 | 0.00 | 40 | 1003.7 |
| 20260504223015 | 72 | 238 | 1.0 | 10.0 | 0.00 | 0.00 | 0.00 | 39 | 1003.6 |
| 20260504221507 | 72 | 262 | 3.0 | 8.0 | 0.00 | 0.00 | 0.00 | 38 | 1003.4 |
| 20260504220015 | 73 | 247 | 2.0 | 7.0 | 0.00 | 0.00 | 0.00 | 38 | 1003.4 |
| 20260504214511 | 73 | 265 | 4.0 | 9.0 | 0.00 | 0.00 | 0.00 | 36 | 1003.5 |
| 20260504213104 | 73 | 279 | 5.0 | 11.0 | 0.00 | 0.00 | 0.00 | 35 | 1003.6 |
| 20260504211550 | 74 | 264 | 3.0 | 9.0 | 0.00 | 0.00 | 0.00 | 39 | 1003.7 |
| 20260504210057 | 73 | 273 | 2.0 | 8.0 | 0.00 | 0.00 | 0.00 | 40 | 1003.7 |
| 20260504204556 | 73 | 263 | 4.0 | 13.0 | 0.00 | 0.00 | 0.00 | 40 | 1003.8 |
| 20260504203006 | 73 | 242 | 5.0 | 13.0 | 0.00 | 0.00 | 0.00 | 39 | 1003.9 |
| 20260504201505 | 73 | 271 | 3.0 | 9.0 | 0.00 | 0.00 | 0.00 | 42 | 1004.0 |
| 20260504200005 | 74 | 283 | 3.0 | 10.0 | 0.00 | 0.00 | 0.00 | 40 | 1004.1 |
| 20260504194559 | 73 | 234 | 3.0 | 13.0 | 0.00 | 0.00 | 0.00 | 44 | 1004.3 |
| 20260504193046 | 73 | 239 | 5.0 | 10.0 | 0.00 | 0.00 | 0.00 | 41 | 1004.7 |
| 20260504191603 | 72 | 252 | 4.0 | 12.0 | 0.00 | 0.00 | 0.00 | 43 | 1004.9 |
| 20260504191502 | 72 | 254 | 3.0 | 12.0 | 0.00 | 0.00 | 0.00 | 43 | 1004.9 |
| 20260504190002 | 72 | 236 | 5.0 | 9.0 | 0.00 | 0.00 | 0.00 | 44 | 1005.2 |
| 20260504184547 | 71 | 278 | 4.0 | 10.0 | 0.00 | 0.00 | 0.00 | 46 | 1005.4 |